ESR885 RKPC-RCTP

Flight info

Callsign ESR885
Flight time 1h 30m
Altitude 34000
Route PANSI Y711 MUGUS Y742 SALMI B576 BAKER
Aircraft B738/M-SDFGHIRWY/LB1

Departure

Time 2026-05-06 14:10
Airport Jeju International Airport (RKPC)

Arrival

Time 2026-05-06 15:41
Airport Taiwan Taoyuan International Airport (RCTP)
Time Latitude Longitude Altitude Speed Heading
2026-05-06 13:45 33.50483 126.48773 108 ft 0 kts 150°
2026-05-06 14:02 33.50484 126.48772 109 ft 3 kts 150°
2026-05-06 14:03 33.50502 126.48759 110 ft 4 kts 150°
2026-05-06 14:03 33.50524 126.48745 110 ft 4 kts 150°
2026-05-06 14:03 33.50546 126.48730 112 ft 4 kts 151°
2026-05-06 14:03 33.50565 126.48712 112 ft 4 kts 102°
2026-05-06 14:04 33.50562 126.48691 112 ft 0 kts 64°
2026-05-06 14:04 33.50560 126.48687 112 ft 0 kts 64°
2026-05-06 14:05 33.50567 126.48701 112 ft 6 kts 60°
2026-05-06 14:06 33.50611 126.48786 118 ft 17 kts 60°
2026-05-06 14:06 33.50684 126.48929 114 ft 21 kts 58°
2026-05-06 14:06 33.50758 126.49074 115 ft 20 kts 59°
2026-05-06 14:06 33.50830 126.49213 113 ft 19 kts 58°
2026-05-06 14:07 33.50899 126.49349 113 ft 19 kts 58°
2026-05-06 14:07 33.50967 126.49480 116 ft 18 kts 58°
2026-05-06 14:07 33.51044 126.49593 120 ft 17 kts 34°
2026-05-06 14:07 33.51159 126.49655 117 ft 20 kts 20°
2026-05-06 14:08 33.51270 126.49718 117 ft 13 kts 47°
2026-05-06 14:08 33.51319 126.49807 121 ft 13 kts 53°
2026-05-06 14:08 33.51394 126.49816 125 ft 0 kts 329°
2026-05-06 14:09 33.51418 126.49798 122 ft 9 kts 328°
2026-05-06 14:09 33.51453 126.49709 127 ft 17 kts 259°
2026-05-06 14:09 33.51434 126.49658 126 ft 8 kts 237°
2026-05-06 14:09 33.51275 126.49349 123 ft 79 kts 238°
2026-05-06 14:10 33.50873 126.48566 126 ft 139 kts 238°
2026-05-06 14:10 33.50289 126.47437 389 ft 166 kts 237°
2026-05-06 14:10 33.49675 126.46247 1093 ft 172 kts 237°
2026-05-06 14:10 33.49057 126.45051 1932 ft 168 kts 236°
2026-05-06 14:11 33.48433 126.43841 2633 ft 172 kts 236°
2026-05-06 14:11 33.47797 126.42600 3307 ft 180 kts 236°
2026-05-06 14:11 33.47106 126.41248 3642 ft 207 kts 237°
2026-05-06 14:11 33.46311 126.39697 3894 ft 230 kts 237°
2026-05-06 14:12 33.45421 126.37971 4096 ft 258 kts 237°
2026-05-06 14:12 33.44460 126.36102 4791 ft 265 kts 238°
2026-05-06 14:12 33.43487 126.34237 5705 ft 266 kts 233°
2026-05-06 14:12 33.42067 126.32821 6439 ft 271 kts 203°
2026-05-06 14:13 33.40257 126.32158 7227 ft 274 kts 194°
2026-05-06 14:13 33.38383 126.31634 7945 ft 279 kts 194°
2026-05-06 14:13 33.36477 126.31101 8744 ft 282 kts 194°
2026-05-06 14:13 33.34560 126.30556 9558 ft 285 kts 195°
2026-05-06 14:14 33.32601 126.30001 10222 ft 293 kts 195°
2026-05-06 14:14 33.30560 126.29411 10527 ft 313 kts 195°
2026-05-06 14:14 33.28364 126.28766 10754 ft 334 kts 195°
2026-05-06 14:14 33.26063 126.28102 10940 ft 354 kts 195°
2026-05-06 14:15 33.23645 126.27400 11580 ft 357 kts 195°
2026-05-06 14:15 33.21218 126.26699 12220 ft 361 kts 195°
2026-05-06 14:15 33.18759 126.25993 12813 ft 366 kts 195°
2026-05-06 14:15 33.16277 126.25280 13458 ft 369 kts 195°
2026-05-06 14:16 33.13762 126.24561 14082 ft 372 kts 195°
2026-05-06 14:16 33.11235 126.23841 14652 ft 374 kts 195°
2026-05-06 14:16 33.08693 126.23116 15204 ft 377 kts 195°
2026-05-06 14:16 33.06155 126.22381 15730 ft 381 kts 196°
2026-05-06 14:17 33.03560 126.21621 16215 ft 386 kts 196°
2026-05-06 14:17 33.00940 126.20858 16727 ft 390 kts 196°
2026-05-06 14:17 32.98323 126.19981 17249 ft 392 kts 200°
2026-05-06 14:17 32.95736 126.18898 17769 ft 395 kts 202°
2026-05-06 14:18 32.93157 126.17742 18272 ft 398 kts 203°
2026-05-06 14:18 32.90553 126.16565 18709 ft 401 kts 203°
2026-05-06 14:18 32.87928 126.15393 19163 ft 404 kts 203°
2026-05-06 14:18 32.85311 126.14243 19596 ft 406 kts 202°
2026-05-06 14:19 32.82644 126.13084 20000 ft 410 kts 202°
2026-05-06 14:19 32.79952 126.11926 20433 ft 413 kts 202°
2026-05-06 14:19 32.77243 126.10765 20874 ft 415 kts 202°
2026-05-06 14:19 32.74516 126.09599 21297 ft 418 kts 203°
2026-05-06 14:20 32.71773 126.08428 21720 ft 420 kts 203°
2026-05-06 14:20 32.69013 126.07250 22138 ft 423 kts 203°
2026-05-06 14:20 32.66230 126.06062 22532 ft 426 kts 203°
2026-05-06 14:20 32.63431 126.04868 22909 ft 429 kts 203°
2026-05-06 14:21 32.60616 126.03668 23290 ft 432 kts 204°
2026-05-06 14:21 32.57783 126.02461 23681 ft 434 kts 204°
2026-05-06 14:21 32.54963 126.01261 24004 ft 436 kts 204°
2026-05-06 14:21 32.52106 126.00046 24347 ft 437 kts 204°
2026-05-06 14:22 32.49241 125.98828 24679 ft 439 kts 204°
2026-05-06 14:22 32.46358 125.97604 24991 ft 441 kts 203°
2026-05-06 14:22 32.43468 125.96378 25276 ft 443 kts 203°
2026-05-06 14:22 32.40553 125.95144 25581 ft 445 kts 203°
2026-05-06 14:23 32.37625 125.93905 25913 ft 446 kts 203°
2026-05-06 14:23 32.34693 125.92665 26231 ft 448 kts 203°
2026-05-06 14:23 32.31753 125.91422 26536 ft 450 kts 203°
2026-05-06 14:23 32.28805 125.90176 26828 ft 451 kts 203°
2026-05-06 14:24 32.25832 125.88921 27086 ft 454 kts 203°
2026-05-06 14:24 32.22856 125.87665 27333 ft 456 kts 203°
2026-05-06 14:24 32.19900 125.86418 27623 ft 458 kts 203°
2026-05-06 14:24 32.16898 125.85154 27918 ft 459 kts 203°
2026-05-06 14:25 32.13882 125.83884 28190 ft 460 kts 203°
2026-05-06 14:25 32.10863 125.82614 28452 ft 462 kts 203°
2026-05-06 14:25 32.07825 125.81336 28695 ft 464 kts 203°
2026-05-06 14:25 32.04776 125.80054 28909 ft 466 kts 202°
2026-05-06 14:26 32.01712 125.78767 29150 ft 468 kts 202°
2026-05-06 14:26 31.98650 125.77481 29520 ft 466 kts 202°
2026-05-06 14:26 31.95604 125.76198 29959 ft 464 kts 202°
2026-05-06 14:26 31.92576 125.74921 30352 ft 461 kts 203°
2026-05-06 14:27 31.89561 125.73649 30688 ft 460 kts 203°
2026-05-06 14:27 31.86543 125.72376 30876 ft 462 kts 203°
2026-05-06 14:27 31.83498 125.71092 31030 ft 465 kts 203°
2026-05-06 14:27 31.80495 125.69828 31353 ft 464 kts 202°
2026-05-06 14:28 31.77427 125.68539 31743 ft 461 kts 202°
2026-05-06 14:28 31.74405 125.67270 32064 ft 461 kts 202°
2026-05-06 14:28 31.71426 125.66019 32305 ft 462 kts 202°
2026-05-06 14:28 31.68396 125.64749 32532 ft 462 kts 202°
2026-05-06 14:29 31.65361 125.63480 32791 ft 463 kts 202°
2026-05-06 14:29 31.62325 125.62212 33095 ft 462 kts 202°
2026-05-06 14:29 31.59301 125.60948 33393 ft 461 kts 202°
2026-05-06 14:29 31.56280 125.59687 33677 ft 461 kts 202°
2026-05-06 14:30 31.53256 125.58425 33937 ft 461 kts 202°
2026-05-06 14:30 31.50226 125.57160 34071 ft 463 kts 202°
2026-05-06 14:30 31.44088 125.54594 34065 ft 471 kts 202°
2026-05-06 14:31 31.37866 125.51995 34073 ft 478 kts 202°
2026-05-06 14:31 31.31622 125.49392 34066 ft 481 kts 202°
2026-05-06 14:32 31.25315 125.46768 34055 ft 482 kts 202°
2026-05-06 14:32 31.18989 125.44140 34062 ft 482 kts 202°
2026-05-06 14:33 31.12664 125.41515 34059 ft 481 kts 202°
2026-05-06 14:33 31.06359 125.38902 34059 ft 481 kts 202°
2026-05-06 14:34 31.00093 125.36308 34056 ft 480 kts 202°
2026-05-06 14:34 30.93806 125.33710 34057 ft 479 kts 202°
2026-05-06 14:35 30.87510 125.31111 34050 ft 479 kts 202°
2026-05-06 14:35 30.81234 125.28524 34061 ft 478 kts 202°
2026-05-06 14:36 30.74958 125.25940 34057 ft 478 kts 202°
2026-05-06 14:36 30.68682 125.23361 34049 ft 478 kts 202°
2026-05-06 14:37 30.62410 125.20786 34055 ft 478 kts 202°
2026-05-06 14:37 30.56146 125.18218 34056 ft 477 kts 202°
2026-05-06 14:38 30.49874 125.15649 34057 ft 477 kts 202°
2026-05-06 14:38 30.43654 125.13101 34055 ft 477 kts 202°
2026-05-06 14:39 30.37385 125.10523 34062 ft 478 kts 202°
2026-05-06 14:39 30.31119 125.07948 34057 ft 478 kts 202°
2026-05-06 14:40 30.24841 125.05373 34048 ft 478 kts 202°
2026-05-06 14:40 30.19628 125.03238 34053 ft 478 kts 202°
2026-05-06 14:41 30.13341 125.00666 34055 ft 479 kts 202°
2026-05-06 14:41 30.07060 124.98100 34043 ft 479 kts 202°
2026-05-06 14:42 30.00777 124.95536 34047 ft 479 kts 202°
2026-05-06 14:42 29.94512 124.92912 34048 ft 478 kts 204°
2026-05-06 14:43 29.88272 124.90227 34052 ft 478 kts 204°
2026-05-06 14:43 29.82032 124.87548 34041 ft 479 kts 204°
2026-05-06 14:44 29.75782 124.84880 34056 ft 479 kts 204°
2026-05-06 14:45 29.66418 124.80898 34049 ft 480 kts 204°
2026-05-06 14:45 29.60150 124.78237 34043 ft 481 kts 204°
2026-05-06 14:46 29.53869 124.75573 34048 ft 481 kts 204°
2026-05-06 14:46 29.47577 124.72908 34048 ft 482 kts 203°
2026-05-06 14:47 29.41288 124.70248 34035 ft 482 kts 204°
2026-05-06 14:47 29.34987 124.67587 34054 ft 482 kts 204°
2026-05-06 14:48 29.28737 124.64950 34048 ft 482 kts 204°
2026-05-06 14:48 29.22432 124.62294 34046 ft 482 kts 204°
2026-05-06 14:49 29.16132 124.59643 34045 ft 482 kts 204°
2026-05-06 14:49 29.09826 124.56993 34051 ft 482 kts 204°
2026-05-06 14:50 29.03549 124.54358 34043 ft 483 kts 204°
2026-05-06 14:50 28.97209 124.51692 34052 ft 482 kts 205°
2026-05-06 14:51 28.91470 124.48018 34066 ft 474 kts 219°
2026-05-06 14:51 28.86125 124.43630 34049 ft 473 kts 219°
2026-05-06 14:52 28.80779 124.39268 34043 ft 472 kts 219°
2026-05-06 14:52 28.75401 124.34943 34049 ft 472 kts 219°
2026-05-06 14:53 28.70055 124.30671 34045 ft 472 kts 219°
2026-05-06 14:53 28.64686 124.26386 34047 ft 472 kts 219°
2026-05-06 14:54 28.59305 124.22096 34038 ft 471 kts 219°
2026-05-06 14:54 28.53935 124.17818 34049 ft 470 kts 219°
2026-05-06 14:55 28.48573 124.13552 34046 ft 470 kts 219°
2026-05-06 14:55 28.43201 124.09283 34047 ft 470 kts 219°
2026-05-06 14:56 28.37874 124.05054 34047 ft 469 kts 219°
2026-05-06 14:56 28.32519 124.00810 34045 ft 469 kts 219°
2026-05-06 14:57 28.27189 123.96529 34048 ft 468 kts 220°
2026-05-06 14:57 28.21905 123.92210 34044 ft 468 kts 220°
2026-05-06 14:58 28.16615 123.87894 34046 ft 468 kts 220°
2026-05-06 14:58 28.11316 123.83588 34050 ft 468 kts 220°
2026-05-06 14:59 28.06023 123.79296 34049 ft 468 kts 220°
2026-05-06 14:59 28.00763 123.75035 34037 ft 468 kts 220°
2026-05-06 15:00 27.95465 123.70748 34044 ft 467 kts 220°
2026-05-06 15:00 27.90178 123.66465 34047 ft 467 kts 220°
2026-05-06 15:01 27.84894 123.62163 34057 ft 467 kts 220°
2026-05-06 15:01 27.79610 123.57864 34034 ft 468 kts 220°
2026-05-06 15:02 27.74325 123.53572 34047 ft 468 kts 220°
2026-05-06 15:02 27.69067 123.49308 34045 ft 468 kts 220°
2026-05-06 15:03 27.63774 123.45022 34046 ft 468 kts 220°
2026-05-06 15:03 27.58472 123.40734 34042 ft 468 kts 220°
2026-05-06 15:04 27.53176 123.36455 34036 ft 468 kts 220°
2026-05-06 15:04 27.47879 123.32181 34050 ft 468 kts 220°
2026-05-06 15:05 27.42608 123.27933 34049 ft 468 kts 220°
2026-05-06 15:05 27.37312 123.23670 34040 ft 467 kts 220°
2026-05-06 15:06 27.32028 123.19421 34044 ft 467 kts 220°
2026-05-06 15:06 27.26733 123.15168 34040 ft 467 kts 220°
2026-05-06 15:07 27.21432 123.10916 34043 ft 468 kts 220°
2026-05-06 15:07 27.16131 123.06668 34036 ft 468 kts 220°
2026-05-06 15:08 27.10825 123.02420 34042 ft 468 kts 220°
2026-05-06 15:08 27.05511 122.98177 34037 ft 469 kts 220°
2026-05-06 15:09 27.00181 122.93946 34032 ft 469 kts 220°
2026-05-06 15:09 26.94849 122.89720 34036 ft 469 kts 220°
2026-05-06 15:10 26.89559 122.85528 34034 ft 469 kts 219°
2026-05-06 15:10 26.84224 122.81304 34033 ft 469 kts 219°
2026-05-06 15:11 26.78884 122.77080 34036 ft 470 kts 219°
2026-05-06 15:11 26.73540 122.72857 34026 ft 469 kts 219°
2026-05-06 15:12 26.68205 122.68648 34035 ft 469 kts 219°
2026-05-06 15:12 26.62864 122.64434 34026 ft 469 kts 219°
2026-05-06 15:13 26.57559 122.60249 34026 ft 469 kts 219°
2026-05-06 15:13 26.52219 122.56041 34024 ft 469 kts 219°
2026-05-06 15:14 26.46896 122.51852 34014 ft 463 kts 219°
2026-05-06 15:14 26.44289 122.49804 33608 ft 457 kts 219°
2026-05-06 15:14 26.41709 122.47779 33237 ft 449 kts 219°
2026-05-06 15:14 26.39138 122.45757 32769 ft 456 kts 219°
2026-05-06 15:15 26.36563 122.43732 32301 ft 452 kts 219°
2026-05-06 15:15 26.34003 122.41724 31824 ft 447 kts 219°
2026-05-06 15:15 26.31474 122.39741 31384 ft 443 kts 219°
2026-05-06 15:15 26.28967 122.37776 30944 ft 439 kts 219°
2026-05-06 15:16 26.26480 122.35827 30511 ft 435 kts 219°
2026-05-06 15:16 26.24018 122.33899 30063 ft 431 kts 219°
2026-05-06 15:16 26.21566 122.31978 29553 ft 427 kts 219°
2026-05-06 15:16 26.19149 122.30086 29064 ft 422 kts 219°
2026-05-06 15:17 26.16758 122.28216 28593 ft 418 kts 219°
2026-05-06 15:17 26.14389 122.26365 28139 ft 414 kts 219°
2026-05-06 15:17 26.12071 122.24562 27689 ft 410 kts 219°
2026-05-06 15:17 26.09730 122.22759 27255 ft 406 kts 218°
2026-05-06 15:18 26.07418 122.20985 26822 ft 403 kts 218°
2026-05-06 15:18 26.05115 122.19218 26390 ft 400 kts 218°
2026-05-06 15:18 26.02821 122.17459 25957 ft 397 kts 218°
2026-05-06 15:18 26.00554 122.15719 25533 ft 394 kts 218°
2026-05-06 15:19 25.98327 122.14009 25084 ft 393 kts 218°
2026-05-06 15:19 25.96086 122.12288 24647 ft 391 kts 217°
2026-05-06 15:19 25.93846 122.10569 24219 ft 389 kts 217°
2026-05-06 15:19 25.91617 122.08859 23784 ft 388 kts 217°
2026-05-06 15:20 25.89400 122.07159 23303 ft 387 kts 217°
2026-05-06 15:20 25.87193 122.05468 22858 ft 384 kts 217°
2026-05-06 15:20 25.84999 122.03788 22420 ft 381 kts 217°
2026-05-06 15:20 25.82829 122.02126 21996 ft 378 kts 217°
2026-05-06 15:21 25.80670 122.00473 21572 ft 375 kts 217°
2026-05-06 15:21 25.78528 121.98834 21162 ft 373 kts 217°
2026-05-06 15:21 25.76395 121.97202 20752 ft 370 kts 217°
2026-05-06 15:21 25.74309 121.95608 20331 ft 368 kts 217°
2026-05-06 15:22 25.72207 121.94004 19946 ft 366 kts 216°
2026-05-06 15:22 25.70110 121.92409 19586 ft 363 kts 216°
2026-05-06 15:22 25.68036 121.90836 19220 ft 361 kts 216°
2026-05-06 15:22 25.65987 121.89237 18874 ft 359 kts 221°
2026-05-06 15:23 25.64201 121.87317 18532 ft 357 kts 231°
2026-05-06 15:23 25.62743 121.85101 18143 ft 356 kts 240°
2026-05-06 15:23 25.61518 121.82727 17782 ft 354 kts 242°
2026-05-06 15:23 25.60322 121.80344 17419 ft 353 kts 242°
2026-05-06 15:24 25.59131 121.77966 17072 ft 352 kts 242°
2026-05-06 15:24 25.57937 121.75599 16724 ft 351 kts 241°
2026-05-06 15:24 25.56743 121.73249 16370 ft 350 kts 241°
2026-05-06 15:24 25.55545 121.70902 16029 ft 349 kts 241°
2026-05-06 15:25 25.54367 121.68599 15701 ft 347 kts 241°
2026-05-06 15:25 25.53175 121.66275 15353 ft 346 kts 240°
2026-05-06 15:25 25.51988 121.63960 15026 ft 343 kts 240°
2026-05-06 15:25 25.50815 121.61675 14694 ft 340 kts 240°
2026-05-06 15:26 25.49646 121.59400 14343 ft 339 kts 240°
2026-05-06 15:26 25.48440 121.57172 14010 ft 337 kts 234°
2026-05-06 15:26 25.46958 121.55168 13682 ft 336 kts 228°
2026-05-06 15:26 25.45402 121.53246 13316 ft 335 kts 227°
2026-05-06 15:27 25.43862 121.51331 12978 ft 332 kts 229°
2026-05-06 15:27 25.42339 121.49430 12642 ft 328 kts 229°
2026-05-06 15:27 25.40847 121.47539 12311 ft 325 kts 230°
2026-05-06 15:27 25.39388 121.45653 12014 ft 320 kts 230°
2026-05-06 15:28 25.37946 121.43793 11697 ft 318 kts 230°
2026-05-06 15:28 25.36987 121.42570 11468 ft 317 kts 229°
2026-05-06 15:28 25.35540 121.40739 11138 ft 315 kts 230°
2026-05-06 15:28 25.33661 121.38333 10838 ft 307 kts 230°
2026-05-06 15:29 25.32722 121.37135 10678 ft 304 kts 230°
2026-05-06 15:29 25.31336 121.35365 10279 ft 305 kts 230°
2026-05-06 15:29 25.29956 121.33596 9984 ft 301 kts 230°
2026-05-06 15:29 25.28624 121.31884 9787 ft 286 kts 230°
2026-05-06 15:30 25.27350 121.30244 9432 ft 278 kts 231°
2026-05-06 15:30 25.26109 121.28612 8971 ft 274 kts 230°
2026-05-06 15:30 25.24880 121.27050 8832 ft 265 kts 230°
2026-05-06 15:30 25.23688 121.25544 8576 ft 263 kts 230°
2026-05-06 15:31 25.22488 121.24029 8329 ft 261 kts 230°
2026-05-06 15:31 25.21306 121.22532 8146 ft 257 kts 230°
2026-05-06 15:31 25.20126 121.21030 7872 ft 260 kts 230°
2026-05-06 15:32 25.17734 121.18002 7318 ft 262 kts 229°
2026-05-06 15:32 25.16541 121.16488 7070 ft 260 kts 229°
2026-05-06 15:32 25.15356 121.14979 6807 ft 260 kts 229°
2026-05-06 15:32 25.14176 121.13475 6529 ft 259 kts 229°
2026-05-06 15:33 25.12998 121.11981 6288 ft 257 kts 229°
2026-05-06 15:33 25.11825 121.10495 6014 ft 256 kts 229°
2026-05-06 15:33 25.10661 121.09020 5777 ft 253 kts 229°
2026-05-06 15:33 25.09506 121.07556 5486 ft 253 kts 229°
2026-05-06 15:34 25.08365 121.06112 5240 ft 251 kts 229°
2026-05-06 15:34 25.07226 121.04660 5009 ft 249 kts 229°
2026-05-06 15:34 25.06095 121.03223 4774 ft 248 kts 229°
2026-05-06 15:34 25.04945 121.01797 4496 ft 247 kts 223°
2026-05-06 15:35 25.03477 121.00879 4221 ft 248 kts 193°
2026-05-06 15:35 25.01765 121.00952 4013 ft 248 kts 165°
2026-05-06 15:35 25.00228 121.01798 3764 ft 248 kts 142°
2026-05-06 15:35 24.98981 121.03068 3522 ft 241 kts 137°
2026-05-06 15:36 24.97785 121.04337 3260 ft 235 kts 137°
2026-05-06 15:36 24.96653 121.05562 3090 ft 221 kts 131°
2026-05-06 15:36 24.96084 121.07056 2873 ft 210 kts 90°
2026-05-06 15:36 24.96577 121.08501 2633 ft 203 kts 45°
2026-05-06 15:37 24.97608 121.09515 2465 ft 195 kts 43°
2026-05-06 15:37 24.98555 121.10545 2320 ft 187 kts 46°
2026-05-06 15:37 24.99403 121.11584 2102 ft 177 kts 49°
2026-05-06 15:37 25.00173 121.12560 2008 ft 163 kts 49°
2026-05-06 15:38 25.00917 121.13504 1806 ft 165 kts 49°
2026-05-06 15:38 25.01671 121.14461 1624 ft 161 kts 49°
2026-05-06 15:38 25.02388 121.15373 1427 ft 158 kts 49°
2026-05-06 15:38 25.03105 121.16293 1289 ft 158 kts 50°
2026-05-06 15:39 25.03825 121.17209 1108 ft 159 kts 49°
2026-05-06 15:39 25.04549 121.18127 936 ft 159 kts 49°
2026-05-06 15:39 25.05264 121.19039 756 ft 158 kts 49°
2026-05-06 15:39 25.05981 121.19949 555 ft 156 kts 49°
2026-05-06 15:40 25.06688 121.20843 347 ft 151 kts 49°
2026-05-06 15:40 25.07371 121.21705 136 ft 146 kts 49°
2026-05-06 15:40 25.07979 121.22477 118 ft 115 kts 49°
2026-05-06 15:40 25.08409 121.23022 112 ft 73 kts 49°
2026-05-06 15:41 25.08635 121.23324 115 ft 39 kts 55°
2026-05-06 15:41 25.08720 121.23576 114 ft 23 kts 80°
2026-05-06 15:41 25.08708 121.23662 110 ft 10 kts 137°
2026-05-06 15:41 25.08648 121.23648 113 ft 10 kts 233°
2026-05-06 15:42 25.08602 121.23591 114 ft 10 kts 229°
2026-05-06 15:42 25.08556 121.23533 115 ft 11 kts 229°
2026-05-06 15:42 25.08499 121.23461 112 ft 11 kts 226°
2026-05-06 15:42 25.08446 121.23483 111 ft 9 kts 138°
2026-05-06 15:43 25.08421 121.23531 111 ft 7 kts 65°
2026-05-06 15:43 25.08448 121.23572 111 ft 7 kts 73°
2026-05-06 15:43 25.08416 121.23610 108 ft 8 kts 143°
2026-05-06 15:43 25.08368 121.23657 106 ft 9 kts 139°
2026-05-06 15:44 25.08360 121.23664 106 ft 0 kts 139°